CENTAURI-2 (43722 NORAD) Tracking and Keplerian Element Data

This shows tracking and keplerian element data for the satellite.

Feedback or suggestion? Click here.




ElementValue
Catalog43722
NameCENTAURI-2
Epoch Orbit3440
Epoch Day193.77281292
Epoch Year2019
RAAN263.6522
Inclination97.4588
Eccentricity0.0016619
Argument of Perigee243.1306
Mean Anonmoly116.8234
Mean Motion15.26557039
Decay Rate1.327E-05
L11 43722U 18096D 19193.77281292 .00001327 00000-0 53464-4 0 9992
L22 43722 97.4588 263.6522 0016619 243.1306 116.8234 15.26557039 34408

Live tracking and technical data element details for CENTAURI-2 (NORAD 43722). CENTAURI-2 can be tracked NOW for your location showing map with azimuth and elevation plus other details from your city location.

Track the satellite on the map from your city or location and see movement details for azimuth, elevation, latitude, longitude, range, height, and movement on the map or in text.







IsCatalogInMostPopularTable: catalog: 43722, numindb: 69
Update: records affected: 1



GetName: 43722 CENTAURI-2

Hit Count: updated at: Mon, 15 Jul 2019 21:53:35 GMT